Weather History for KSMF - June, 2013

Change the Weather History Date:

Saturday, June 29, 2013

  Actual Average Record
Temperature  
Mean Temperature 84 °F -  
Max Temperature 108 °F 87 °F 108 °F (2013)
Min Temperature 64 °F 56 °F 49 °F (1949)
Cooling Degree Days 20    
Growing Degree Days 34 (Base 50)    
Moisture  
Dew Point 61 °F    
Average Humidity 45    
Maximum Humidity 84    
Minimum Humidity 16    
Precipitation  
Precipitation 0.00 in - - ()
Sea Level Pressure  
Sea Level Pressure 29.81 in    
Wind  
Wind Speed 5 mph (West)    
Max Wind Speed 14 mph    
Max Gust Speed -    
Visibility 10 miles    
Events      
Averages and records for this station are not official NWS values.
T = Trace of Precipitation, MM = Missing Value Source: NWS Daily Summary

Daily Weather History Graph

Daily Weather History Graph

Search for Another Location

Airport or City:

Trip Planner

Search our weather history database for the weather conditions in past years. The results will help you decide how hot, cold, wet, or windy it might be!

Date:

Astronomy

Jun. 29, 2013 Rise Set
Actual Time 5:44 AM PDT 8:35 PM PDT
Civil Twilight 5:12 AM PDT 9:06 PM PDT
Nautical Twilight 4:32 AM PDT 9:46 PM PDT
Astronomical Twilight 3:46 AM PDT 10:32 PM PDT
Moon 12:11 AM PDT (6/29) 12:56 PM PDT (6/29)
Length of Visible Light 15h 54m
Length of Day
14h 50m
Waning Gibbous, 54% of the Moon is Illuminated
Jun 29
Waning Gibbous
Jun 29
Last Quarter
Jul 8
New
Jul 15
First Quarter
Jul 22
Full

Hourly Weather History & Observations

Time (PDT) Temp. Heat Index Dew Point Humidity Pressure Visibility Wind Dir Wind Speed Gust Speed Precip Events Conditions
12:53 AM 75.0 °F - 62.1 °F 64% 29.84 in 10.0 mi South 4.6 mph - N/A   Clear
1:53 AM 77.0 °F - 60.1 °F 56% 29.85 in 10.0 mi SSE 4.6 mph - N/A   Clear
2:53 AM 72.0 °F - 60.1 °F 66% 29.84 in 10.0 mi SW 5.8 mph - N/A   Clear
3:53 AM 71.1 °F - 59.0 °F 66% 29.84 in 10.0 mi Calm Calm - N/A   Clear
4:53 AM 69.1 °F - 60.1 °F 73% 29.84 in 10.0 mi SSW 3.5 mph - N/A   Clear
5:53 AM 64.9 °F - 60.1 °F 84% 29.86 in 10.0 mi NNW 4.6 mph - N/A   Clear
6:53 AM 73.0 °F - 66.0 °F 79% 29.87 in 10.0 mi NE 4.6 mph - N/A   Clear
7:53 AM 81.0 °F 81.9 °F 62.1 °F 52% 29.87 in 10.0 mi ENE 4.6 mph - N/A   Clear
8:53 AM 87.1 °F 87.0 °F 61.0 °F 41% 29.88 in 10.0 mi NE 3.5 mph - N/A   Clear
9:53 AM 88.0 °F 87.9 °F 61.0 °F 40% 29.87 in 10.0 mi NW 9.2 mph - N/A   Clear
10:53 AM 91.0 °F 91.9 °F 63.0 °F 39% 29.86 in 10.0 mi WNW 4.6 mph - N/A   Clear
11:53 AM 96.1 °F 96.9 °F 62.1 °F 32% 29.86 in 10.0 mi NNW 10.4 mph - N/A   Clear
12:53 PM 98.1 °F 100.7 °F 64.0 °F 33% 29.84 in 10.0 mi NW 9.2 mph - N/A   Clear
1:53 PM 100.9 °F 102.7 °F 62.1 °F 28% 29.82 in 10.0 mi NNW 13.8 mph - N/A   Clear
2:53 PM 102.9 °F 104.2 °F 61.0 °F 25% 29.80 in 10.0 mi NNW 9.2 mph - N/A   Clear
3:53 PM 104.0 °F 105.3 °F 60.1 °F 24% 29.78 in 10.0 mi NW 8.1 mph - N/A   Clear
4:53 PM 105.1 °F - 51.1 °F 16% 29.76 in 10.0 mi Calm Calm - N/A   Clear
5:53 PM 105.1 °F 103.3 °F 53.1 °F 18% 29.74 in 10.0 mi Variable 3.5 mph - N/A   Clear
6:53 PM 102.9 °F 101.9 °F 55.9 °F 21% 29.73 in 10.0 mi West 4.6 mph - N/A   Clear
7:53 PM 99.0 °F 100.5 °F 63.0 °F 30% 29.73 in 10.0 mi SW 4.6 mph - N/A   Clear
8:53 PM 91.0 °F 93.8 °F 66.0 °F 44% 29.73 in 10.0 mi SSW 6.9 mph - N/A   Clear
9:53 PM 88.0 °F 88.4 °F 62.1 °F 42% 29.74 in 10.0 mi South 8.1 mph - N/A   Clear
10:53 PM 82.0 °F 83.8 °F 64.9 °F 56% 29.75 in 10.0 mi SSW 11.5 mph - N/A   Clear
11:53 PM 79.0 °F - 62.1 °F 56% 29.75 in 10.0 mi SW 4.6 mph - N/A   Clear